Regional Weather Roundup
Issued by NWS Sioux Falls, SD

Home | Current Version | Previous Version | Graphics & Text | Print | Product List | Glossary Off
Versions: 1 2 3 4 5 6 7 8 9 10 11 12 13 14 15 16 17 18 19 20 21 22 23 24 25 26 27 28 29 30 31 32 33 34 35 36 37 38 39 40 41 42 43 44 45 46 47 48 49 50

000
ASUS43 KFSD 220110
RWRFSD

WEATHER ROUNDUP FOR SE SOUTH DAKOTA/SW MINNESOTA/NW IOWA
NATIONAL WEATHER SERVICE SIOUX FALLS SD
800 PM CDT SAT OCT 21 2017

NOTE: "FAIR" INDICATES FEW OR NO CLOUDS BELOW 12,000 FEET WITH NO
SIGNIFICANT WEATHER AND OR OBSTRUCTIONS TO VISIBILITY.


SDZ038>040-050-052>070-220200-
SOUTHEAST SOUTH DAKOTA

CITY           SKY/WX    TMP DP  RH WIND       PRES   REMARKS
BROOKINGS      CLEAR     46  40  79 SW8       29.87R
CHAMBERLAIN    MOCLDY    50  36  58 W5        29.91R
HURON          CLOUDY    50  38  63 W7        29.87R
MADISON        FAIR      45  43  93 SW9       29.88R
MITCHELL       CLEAR     50  36  58 SW7       29.90R
SIOUX FALLS    CLEAR     50  41  71 SW3       29.90R
WINNER         FAIR      47  33  58 W9        29.93R
YANKTON        CLEAR     49  39  68 SW6       29.93R
$$

MNZ071-072-080-081-089-090-097-098-220200-
SOUTHWEST MINNESOTA

CITY           SKY/WX    TMP DP  RH WIND       PRES   REMARKS
FAIRMONT       CLOUDY    55  47  74 W8        29.81R
JACKSON        CLOUDY    52  43  71 W14       29.83R
LUVERNE        PTCLDY    48  36  61 W9        29.89R
MARSHALL       MOCLDY    51  42  71 W14       29.84R
MONTEVIDEO     CLOUDY    52  43  71 NW13G18   29.81R
PIPESTONE      MOCLDY    48  39  71 W9        29.87R
REDWOOD FALLS  CLOUDY    54  44  69 W18G24    29.79R
TRACY          MOCLDY    53  44  71 W9        29.84R
WORTHINGTON    PTCLDY    50  42  74 W14       29.86R
$$

IAZ001>003-012>014-020>022-031-032-NEZ013-014-SDZ071-220200-
NORTHWEST IOWA

CITY           SKY/WX    TMP DP  RH WIND       PRES   REMARKS
CHEROKEE       CLOUDY    52  44  74 W8        29.87S
DENISON        CLOUDY    54  45  71 NW9       29.89R
ESTHERVILLE    MOCLDY    53  45  74 W9        29.81R
LE MARS        CLEAR     50  41  71 NW7G14    29.89S
ORANGE CITY    CLEAR     50  43  76 W13       29.88R
SHELDON        PTCLDY    50  41  71 W12G17    29.86R
SIOUX CITY     PTCLDY    51  40  65 NW12      29.90R
SPENCER        LGT RAIN  53  43  68 W14       29.84R
STORM LAKE     CLOUDY    52  43  71 NW14G21   29.85S
$$

ABBREVIATIONS USED IN REMARKS
   TC - TEMPERATURE IN CELSIUS
  WCI - WIND CHILL INDEX
   HX - HEAT INDEX
  VSB - VISIBILITY





USA.gov is the U.S. government's official web portal to all federal, state and local government web resources and services.